Location: G�yn�k
(36.6721°N, 30.5542°E)
Time: 21:07:08
(UTC+00:00)

BREEZE-M DEB (TANK) - Pass Details

Date: 04 October 2020
Orbit: 333 x 12040 km, 49.7° (Epoch: 26 October)

Event Time Altitude Azimuth Distance (km) Brightness Sun altitude
Rises 00:56:10 0° 191° (S) 12,772 8.7 -36.0°
Reaches altitude 10° 01:06:08 10° 187° (S) 13,045 8.8 -34.2°
Maximum altitude 02:38:11 66° 119° (ESE) 10,951 8.7 -16.4°
Drops below altitude 10° 03:23:50 10° 53° (NE) 8,224 8.9 -7.2°
Sets 03:27:58 0° 51° (NE) 8,386 9.0 -6.4°
